| time (UTC) | temp F | wind direction | speed knots | gust knots | rain 1hr in | rain 24hr in | rain mn in | humidity % | barometer mb |
| 20260506070420 | 47 | 24 | 1.7 | 4.3 | 0.00 | 0.00 | 0.00 | 74 | 1017.2 |
| 20260506062358 | 47 | 78 | 1.7 | 1.7 | 0.00 | 0.00 | 0.00 | 73 | 1016.7 |
| 20260506061854 | 47 | 85 | 2.6 | 3.5 | 0.00 | 0.00 | 0.00 | 73 | 1016.6 |
| 20260506061350 | 48 | 59 | 1.7 | 1.7 | 0.00 | 0.00 | 0.00 | 72 | 1016.9 |
| 20260506060848 | 48 | 115 | 2.6 | 3.5 | 0.00 | 0.00 | 0.00 | 72 | 1016.7 |
| 20260506060346 | 48 | 100 | 2.6 | 3.5 | 0.00 | 0.00 | 0.00 | 73 | 1016.5 |
| 20260506051318 | 51 | 107 | 2.6 | 2.6 | 0.00 | 0.00 | 0.00 | 64 | 1016.1 |
| 20260506050816 | 52 | 161 | 0.9 | 1.7 | 0.00 | 0.00 | 0.00 | 63 | 1016.0 |
| 20260506050313 | 51 | 89 | 0.0 | 1.7 | 0.00 | 0.00 | 0.00 | 63 | 1016.0 |
| 20260506044803 | 53 | 268 | 0.0 | 2.6 | 0.00 | 0.00 | 0.00 | 61 | 1015.6 |
| 20260506044301 | 53 | 26 | 0.9 | 2.6 | 0.00 | 0.00 | 0.00 | 60 | 1015.6 |
| 20260506043758 | 54 | 296 | 0.9 | 2.6 | 0.00 | 0.00 | 0.00 | 59 | 1015.6 |
| 20260506043255 | 54 | 335 | 2.6 | 2.6 | 0.00 | 0.00 | 0.00 | 59 | 1015.4 |
| 20260506042754 | 55 | 308 | 1.7 | 2.6 | 0.00 | 0.00 | 0.00 | 58 | 1015.5 |
| 20260506042253 | 55 | 357 | 1.7 | 2.6 | 0.00 | 0.00 | 0.00 | 58 | 1015.7 |
| 20260506041751 | 55 | 358 | 1.7 | 2.6 | 0.00 | 0.00 | 0.00 | 57 | 1015.5 |
| 20260506041247 | 55 | 9 | 1.7 | 1.7 | 0.00 | 0.00 | 0.00 | 57 | 1015.5 |
| 20260506040745 | 55 | 23 | 1.7 | 2.6 | 0.00 | 0.00 | 0.00 | 58 | 1015.4 |
| 20260506040242 | 56 | 13 | 1.7 | 3.5 | 0.00 | 0.00 | 0.00 | 58 | 1015.0 |
| 20260506035738 | 56 | 15 | 1.7 | 2.6 | 0.00 | 0.00 | 0.00 | 57 | 1015.1 |
| 20260506035235 | 57 | 19 | 2.6 | 2.6 | 0.00 | 0.00 | 0.00 | 55 | 1015.0 |
| 20260506034732 | 57 | 23 | 0.9 | 1.7 | 0.00 | 0.00 | 0.00 | 54 | 1015.0 |
| 20260506034229 | 58 | 23 | 1.7 | 2.6 | 0.00 | 0.00 | 0.00 | 52 | 1014.9 |
| 20260506033727 | 59 | 58 | 0.9 | 1.7 | 0.00 | 0.00 | 0.00 | 50 | 1014.6 |
| 20260506033224 | 60 | 44 | 0.0 | 2.6 | 0.00 | 0.00 | 0.00 | 49 | 1014.9 |
| 20260506032720 | 60 | 20 | 1.7 | 1.7 | 0.00 | 0.00 | 0.00 | 46 | 1014.6 |
| 20260506032217 | 62 | 66 | 0.0 | 2.6 | 0.00 | 0.00 | 0.00 | 45 | 1014.6 |
| 20260506031714 | 62 | 1 | 0.9 | 1.7 | 0.00 | 0.00 | 0.00 | 43 | 1014.5 |
| 20260506031211 | 63 | 18 | 3.5 | 3.5 | 0.00 | 0.00 | 0.00 | 41 | 1014.5 |
| 20260506030710 | 64 | 319 | 3.5 | 6.1 | 0.00 | 0.00 | 0.00 | 40 | 1014.1 |
| 20260506030207 | 64 | 344 | 1.7 | 3.5 | 0.00 | 0.00 | 0.00 | 39 | 1014.3 |
| 20260506025703 | 65 | 330 | 2.6 | 3.5 | 0.00 | 0.00 | 0.00 | 39 | 1014.3 |
| 20260506025200 | 65 | 314 | 1.7 | 5.2 | 0.00 | 0.00 | 0.00 | 38 | 1014.0 |
| 20260506024657 | 66 | 310 | 0.0 | 3.5 | 0.00 | 0.00 | 0.00 | 38 | 1014.2 |
| 20260506024153 | 66 | 290 | 4.3 | 4.3 | 0.00 | 0.00 | 0.00 | 37 | 1014.2 |
| 20260506023649 | 66 | 241 | 0.0 | 7.8 | 0.00 | 0.00 | 0.00 | 37 | 1014.0 |
| 20260506023147 | 68 | 330 | 3.5 | 5.2 | 0.00 | 0.00 | 0.00 | 36 | 1014.1 |
| 20260506022644 | 68 | 276 | 2.6 | 8.7 | 0.00 | 0.00 | 0.00 | 35 | 1013.7 |
| 20260506022141 | 68 | 309 | 7.8 | 11.3 | 0.00 | 0.00 | 0.00 | 34 | 1013.7 |
| 20260506021639 | 69 | 345 | 2.6 | 3.5 | 0.00 | 0.00 | 0.00 | 35 | 1014.0 |
| 20260506021136 | 69 | 326 | 3.5 | 5.2 | 0.00 | 0.00 | 0.00 | 34 | 1013.9 |
| 20260506020633 | 69 | 314 | 3.5 | 7.0 | 0.00 | 0.00 | 0.00 | 34 | 1013.9 |
| 20260506020131 | 70 | 356 | 2.6 | 7.0 | 0.00 | 0.00 | 0.00 | 33 | 1013.5 |
| 20260506015628 | 70 | 305 | 3.5 | 10.4 | 0.00 | 0.00 | 0.00 | 33 | 1013.6 |
| 20260506015125 | 70 | 285 | 2.6 | 4.3 | 0.00 | 0.00 | 0.00 | 33 | 1013.9 |
| 20260506014623 | 70 | 283 | 1.7 | 8.7 | 0.00 | 0.00 | 0.00 | 33 | 1013.5 |
| 20260506014118 | 71 | 302 | 1.7 | 6.1 | 0.00 | 0.00 | 0.00 | 32 | 1013.5 |
| 20260506013617 | 71 | 293 | 4.3 | 7.0 | 0.00 | 0.00 | 0.00 | 32 | 1013.4 |
| 20260506013113 | 71 | 298 | 3.5 | 7.8 | 0.00 | 0.00 | 0.00 | 31 | 1013.7 |
| 20260506012609 | 71 | 284 | 3.5 | 7.0 | 0.00 | 0.00 | 0.00 | 31 | 1013.4 |
| 20260506012105 | 72 | 305 | 1.7 | 3.5 | 0.00 | 0.00 | 0.00 | 32 | 1013.6 |
| 20260506011604 | 71 | 306 | 3.5 | 5.2 | 0.00 | 0.00 | 0.00 | 32 | 1013.5 |
| 20260506011100 | 72 | 291 | 3.5 | 8.7 | 0.00 | 0.00 | 0.00 | 32 | 1013.5 |
| 20260506010559 | 71 | 294 | 2.6 | 14.8 | 0.00 | 0.00 | 0.00 | 32 | 1013.5 |
| 20260506010050 | 72 | 328 | 6.1 | 7.8 | 0.00 | 0.00 | 0.00 | 32 | 1013.5 |
| 20260506005547 | 71 | 327 | 6.1 | 10.4 | 0.00 | 0.00 | 0.00 | 32 | 1013.4 |
| 20260506005043 | 72 | 285 | 2.6 | 7.0 | 0.00 | 0.00 | 0.00 | 32 | 1013.3 |
| 20260506004541 | 72 | 286 | 1.7 | 8.7 | 0.00 | 0.00 | 0.00 | 32 | 1013.5 |
| 20260506004037 | 73 | 314 | 1.7 | 7.0 | 0.00 | 0.00 | 0.00 | 31 | 1013.0 |
| 20260506003533 | 73 | 329 | 7.0 | 7.0 | 0.00 | 0.00 | 0.00 | 32 | 1013.2 |
| 20260506003029 | 73 | 269 | 7.8 | 10.4 | 0.00 | 0.00 | 0.00 | 31 | 1013.2 |
| 20260506002526 | 73 | 279 | 4.3 | 9.6 | 0.00 | 0.00 | 0.00 | 32 | 1013.2 |
| 20260506002022 | 73 | 296 | 7.8 | 10.4 | 0.00 | 0.00 | 0.00 | 31 | 1013.0 |
| 20260506001519 | 72 | 302 | 6.1 | 11.3 | 0.00 | 0.00 | 0.00 | 31 | 1013.0 |
| 20260506001016 | 73 | 332 | 6.1 | 10.4 | 0.00 | 0.00 | 0.00 | 31 | 1012.9 |
| 20260506000514 | 73 | 332 | 6.1 | 10.4 | 0.00 | 0.00 | 0.00 | 31 | 1012.9 |
| 20260506000011 | 74 | 308 | 6.1 | 8.7 | 0.00 | 0.00 | 0.00 | 31 | 1012.9 |
| 20260505235509 | 73 | 299 | 9.6 | 14.8 | 0.00 | 0.00 | 0.00 | 31 | 1013.0 |
| 20260505235005 | 74 | 1 | 1.7 | 7.8 | 0.00 | 0.00 | 0.00 | 31 | 1012.7 |
| 20260505234502 | 74 | 354 | 5.2 | 7.8 | 0.00 | 0.00 | 0.00 | 30 | 1012.7 |
| 20260505233959 | 74 | 349 | 2.6 | 10.4 | 0.00 | 0.00 | 0.00 | 31 | 1012.9 |
| 20260505233456 | 74 | 305 | 7.8 | 12.2 | 0.00 | 0.00 | 0.00 | 30 | 1012.6 |
| 20260505232954 | 74 | 258 | 3.5 | 13.0 | 0.00 | 0.00 | 0.00 | 30 | 1012.7 |
| 20260505232452 | 74 | 16 | 3.5 | 12.2 | 0.00 | 0.00 | 0.00 | 30 | 1012.6 |
| 20260505231948 | 74 | 309 | 5.2 | 13.0 | 0.00 | 0.00 | 0.00 | 29 | 1012.7 |
| 20260505231446 | 75 | 335 | 7.8 | 12.2 | 0.00 | 0.00 | 0.00 | 29 | 1012.6 |
| 20260505230943 | 75 | 340 | 2.6 | 11.3 | 0.00 | 0.00 | 0.00 | 27 | 1012.6 |
| 20260505230441 | 74 | 279 | 4.3 | 13.9 | 0.00 | 0.00 | 0.00 | 25 | 1012.9 |
| 20260505225937 | 74 | 286 | 13.0 | 15.6 | 0.00 | 0.00 | 0.00 | 28 | 1012.5 |
| 20260505225435 | 74 | 323 | 10.4 | 13.9 | 0.00 | 0.00 | 0.00 | 28 | 1012.7 |
| 20260505224930 | 74 | 337 | 7.8 | 13.9 | 0.00 | 0.00 | 0.00 | 27 | 1012.7 |
| 20260505224427 | 76 | 300 | 5.2 | 8.7 | 0.00 | 0.00 | 0.00 | 27 | 1012.6 |
| 20260505223924 | 75 | 353 | 5.2 | 10.4 | 0.00 | 0.00 | 0.00 | 27 | 1012.6 |
| 20260505223421 | 74 | 302 | 7.0 | 13.9 | 0.00 | 0.00 | 0.00 | 28 | 1012.5 |
| 20260505222917 | 75 | 306 | 4.3 | 8.7 | 0.00 | 0.00 | 0.00 | 27 | 1012.7 |
| 20260505222413 | 75 | 317 | 5.2 | 11.3 | 0.00 | 0.00 | 0.00 | 28 | 1012.5 |
| 20260505221910 | 76 | 309 | 4.3 | 7.0 | 0.00 | 0.00 | 0.00 | 28 | 1012.7 |
| 20260505221407 | 75 | 291 | 4.3 | 13.9 | 0.00 | 0.00 | 0.00 | 28 | 1012.5 |
| 20260505220904 | 75 | 309 | 5.2 | 10.4 | 0.00 | 0.00 | 0.00 | 29 | 1012.6 |
| 20260505220401 | 75 | 333 | 8.7 | 11.3 | 0.00 | 0.00 | 0.00 | 28 | 1012.5 |
| 20260505215858 | 76 | 354 | 2.6 | 7.8 | 0.00 | 0.00 | 0.00 | 29 | 1012.6 |
| 20260505215356 | 77 | 327 | 5.2 | 7.0 | 0.00 | 0.00 | 0.00 | 28 | 1012.6 |
| 20260505214855 | 75 | 345 | 7.0 | 11.3 | 0.00 | 0.00 | 0.00 | 29 | 1012.7 |
| 20260505214352 | 75 | 290 | 2.6 | 11.3 | 0.00 | 0.00 | 0.00 | 28 | 1012.7 |
| 20260505213849 | 75 | 325 | 4.3 | 13.0 | 0.00 | 0.00 | 0.00 | 26 | 1012.9 |
| 20260505213347 | 75 | 304 | 6.1 | 11.3 | 0.00 | 0.00 | 0.00 | 28 | 1012.5 |
| 20260505212842 | 75 | 280 | 3.5 | 10.4 | 0.00 | 0.00 | 0.00 | 29 | 1012.5 |
| 20260505212340 | 75 | 288 | 4.3 | 9.6 | 0.00 | 0.00 | 0.00 | 29 | 1012.7 |
| 20260505211836 | 75 | 319 | 5.2 | 13.0 | 0.00 | 0.00 | 0.00 | 30 | 1012.6 |
| 20260505211334 | 75 | 285 | 2.6 | 11.3 | 0.00 | 0.00 | 0.00 | 31 | 1012.5 |
| 20260505210830 | 75 | 296 | 8.7 | 12.2 | 0.00 | 0.00 | 0.00 | 30 | 1012.6 |
| 20260505210327 | 74 | 345 | 2.6 | 7.8 | 0.00 | 0.00 | 0.00 | 31 | 1012.9 |
| 20260505205823 | 75 | 314 | 3.5 | 10.4 | 0.00 | 0.00 | 0.00 | 31 | 1012.9 |
| 20260505205322 | 75 | 266 | 3.5 | 7.8 | 0.00 | 0.00 | 0.00 | 31 | 1012.7 |
| 20260505204818 | 74 | 330 | 7.0 | 12.2 | 0.00 | 0.00 | 0.00 | 30 | 1013.0 |
| 20260505204316 | 75 | 313 | 9.6 | 13.0 | 0.00 | 0.00 | 0.00 | 31 | 1012.7 |
| 20260505203813 | 75 | 297 | 6.1 | 12.2 | 0.00 | 0.00 | 0.00 | 31 | 1012.7 |
| 20260505203310 | 74 | 285 | 2.6 | 11.3 | 0.00 | 0.00 | 0.00 | 33 | 1012.9 |
| 20260505202806 | 73 | 337 | 2.6 | 10.4 | 0.00 | 0.00 | 0.00 | 34 | 1013.0 |
| 20260505202305 | 74 | 319 | 7.8 | 8.7 | 0.00 | 0.00 | 0.00 | 32 | 1012.9 |
| 20260505201759 | 74 | 312 | 8.7 | 10.4 | 0.00 | 0.00 | 0.00 | 32 | 1012.7 |
| 20260505201256 | 75 | 310 | 3.5 | 13.9 | 0.00 | 0.00 | 0.00 | 34 | 1012.7 |
| 20260505200755 | 75 | 326 | 6.1 | 9.6 | 0.00 | 0.00 | 0.00 | 33 | 1012.9 |
| 20260505200251 | 74 | 323 | 2.6 | 12.2 | 0.00 | 0.00 | 0.00 | 35 | 1012.7 |
| 20260505195746 | 73 | 332 | 7.0 | 12.2 | 0.00 | 0.00 | 0.00 | 35 | 1012.9 |
| 20260505195245 | 75 | 291 | 3.5 | 11.3 | 0.00 | 0.00 | 0.00 | 34 | 1012.7 |
| 20260505194742 | 75 | 326 | 7.8 | 15.6 | 0.00 | 0.00 | 0.00 | 34 | 1013.0 |
| 20260505194238 | 72 | 20 | 6.1 | 13.0 | 0.00 | 0.00 | 0.00 | 35 | 1012.7 |
| 20260505193733 | 73 | 353 | 11.3 | 13.0 | 0.00 | 0.00 | 0.00 | 36 | 1012.7 |
| 20260505193231 | 74 | 34 | 5.2 | 8.7 | 0.00 | 0.00 | 0.00 | 35 | 1013.0 |
| 20260505192725 | 74 | 355 | 8.7 | 11.3 | 0.00 | 0.00 | 0.00 | 34 | 1012.7 |
| 20260505192222 | 73 | 4 | 0.0 | 6.1 | 0.00 | 0.00 | 0.00 | 34 | 1012.7 |
| 20260505191720 | 73 | 260 | 0.9 | 3.5 | 0.00 | 0.00 | 0.00 | 38 | 1012.9 |
| 20260505191218 | 72 | 259 | 2.6 | 4.3 | 0.00 | 0.00 | 0.00 | 39 | 1013.1 |
| 20260505190714 | 72 | 243 | 4.3 | 7.0 | 0.00 | 0.00 | 0.00 | 39 | 1012.9 |
| 20260505190213 | 73 | 257 | 4.3 | 7.8 | 0.00 | 0.00 | 0.00 | 40 | 1013.1 |
| 20260505185710 | 71 | 254 | 7.0 | 8.7 | 0.00 | 0.00 | 0.00 | 42 | 1013.0 |
| 20260505185207 | 71 | 180 | 1.7 | 5.2 | 0.00 | 0.00 | 0.00 | 43 | 1012.7 |
| 20260505184703 | 70 | 217 | 4.3 | 7.0 | 0.00 | 0.00 | 0.00 | 45 | 1013.1 |
| 20260505184201 | 69 | 204 | 2.6 | 6.1 | 0.00 | 0.00 | 0.00 | 45 | 1013.0 |
| 20260505183657 | 69 | 186 | 4.3 | 7.0 | 0.00 | 0.00 | 0.00 | 47 | 1013.1 |
| 20260505183155 | 70 | 200 | 4.3 | 7.0 | 0.00 | 0.00 | 0.00 | 46 | 1013.2 |
| 20260505182650 | 68 | 224 | 4.3 | 5.2 | 0.00 | 0.00 | 0.00 | 49 | 1013.3 |
| 20260505182148 | 68 | 206 | 1.7 | 4.3 | 0.00 | 0.00 | 0.00 | 51 | 1013.2 |
| 20260505181644 | 67 | 204 | 5.2 | 6.1 | 0.00 | 0.00 | 0.00 | 49 | 1013.3 |
| 20260505181142 | 68 | 168 | 0.9 | 6.1 | 0.00 | 0.00 | 0.00 | 48 | 1013.4 |
| 20260505180638 | 66 | 208 | 2.6 | 6.1 | 0.00 | 0.00 | 0.00 | 49 | 1013.6 |
| 20260505180135 | 66 | 167 | 1.7 | 6.1 | 0.00 | 0.00 | 0.00 | 49 | 1013.2 |
| 20260505175630 | 66 | 137 | 2.6 | 4.3 | 0.00 | 0.00 | 0.00 | 47 | 1013.6 |
| 20260505175122 | 66 | 179 | 1.7 | 3.5 | 0.00 | 0.00 | 0.00 | 49 | 1013.4 |
| 20260505174618 | 65 | 201 | 3.5 | 7.8 | 0.00 | 0.00 | 0.00 | 50 | 1013.5 |
| 20260505174115 | 65 | 169 | 0.9 | 4.3 | 0.00 | 0.00 | 0.00 | 51 | 1013.6 |
| 20260505173612 | 65 | 213 | 2.6 | 3.5 | 0.00 | 0.00 | 0.00 | 52 | 1013.7 |
| 20260505173108 | 65 | 114 | 0.9 | 4.3 | 0.00 | 0.00 | 0.00 | 55 | 1013.4 |
| 20260505172606 | 64 | 202 | 4.3 | 5.2 | 0.00 | 0.00 | 0.00 | 54 | 1013.6 |
| 20260505172102 | 64 | 171 | 0.9 | 5.2 | 0.00 | 0.00 | 0.00 | 54 | 1013.7 |
| 20260505171556 | 64 | 155 | 1.7 | 3.5 | 0.00 | 0.00 | 0.00 | 54 | 1013.5 |
| 20260505171054 | 64 | 136 | 3.5 | 4.3 | 0.00 | 0.00 | 0.00 | 54 | 1013.7 |
| 20260505170551 | 63 | 184 | 2.6 | 3.5 | 0.00 | 0.00 | 0.00 | 55 | 1013.5 |
| 20260505170048 | 63 | 139 | 5.2 | 6.1 | 0.00 | 0.00 | 0.00 | 53 | 1013.7 |
| 20260505165543 | 63 | 108 | 1.7 | 3.5 | 0.00 | 0.00 | 0.00 | 53 | 1013.6 |
| 20260505165039 | 62 | 144 | 1.7 | 3.5 | 0.00 | 0.00 | 0.00 | 54 | 1014.0 |
| 20260505164535 | 62 | 130 | 3.5 | 3.5 | 0.00 | 0.00 | 0.00 | 53 | 1014.1 |
| 20260505164033 | 62 | 147 | 1.7 | 4.3 | 0.00 | 0.00 | 0.00 | 54 | 1013.9 |
| 20260505163531 | 61 | 135 | 4.3 | 4.3 | 0.00 | 0.00 | 0.00 | 54 | 1013.6 |
| 20260505163027 | 61 | 173 | 1.7 | 4.3 | 0.00 | 0.00 | 0.00 | 54 | 1013.9 |
| 20260505162521 | 60 | 157 | 0.9 | 3.5 | 0.00 | 0.00 | 0.00 | 56 | 1013.9 |
| 20260505162018 | 60 | 180 | 2.6 | 2.6 | 0.00 | 0.00 | 0.00 | 54 | 1013.9 |
| 20260505161514 | 60 | 172 | 1.7 | 7.0 | 0.00 | 0.00 | 0.00 | 54 | 1013.7 |
| 20260505161012 | 61 | 185 | 0.9 | 2.6 | 0.00 | 0.00 | 0.00 | 53 | 1013.7 |
| 20260505160510 | 59 | 107 | 0.0 | 4.3 | 0.00 | 0.00 | 0.00 | 54 | 1013.6 |
| 20260505152946 | 58 | 106 | 1.7 | 3.5 | 0.00 | 0.00 | 0.00 | 54 | 1013.6 |
| 20260505152443 | 57 | 148 | 1.7 | 3.5 | 0.00 | 0.00 | 0.00 | 56 | 1013.9 |
| 20260505151943 | 56 | 161 | 0.9 | 3.5 | 0.00 | 0.00 | 0.00 | 58 | 1013.5 |
| 20260505151434 | 56 | 171 | 0.0 | 3.5 | 0.00 | 0.00 | 0.00 | 58 | 1013.6 |
| 20260505150931 | 56 | 117 | 1.7 | 2.6 | 0.00 | 0.00 | 0.00 | 57 | 1013.6 |
| 20260505150428 | 56 | 98 | 1.7 | 2.6 | 0.00 | 0.00 | 0.00 | 58 | 1013.6 |
| 20260505140357 | 46 | 47 | 2.6 | 3.5 | 0.00 | 0.00 | 0.00 | 78 | 1013.5 |
| 20260505124812 | 39 | 50 | 1.7 | 2.6 | 0.00 | 0.00 | 0.00 | 88 | 1012.9 |
| 20260505124308 | 39 | 80 | 1.7 | 3.5 | 0.00 | 0.00 | 0.00 | 87 | 1012.6 |
| 20260505123804 | 39 | 96 | 1.7 | 3.5 | 0.00 | 0.00 | 0.00 | 87 | 1012.7 |
| 20260505123300 | 39 | 67 | 2.6 | 3.5 | 0.00 | 0.00 | 0.00 | 88 | 1012.5 |
| 20260505122756 | 40 | 96 | 1.7 | 3.5 | 0.00 | 0.00 | 0.00 | 87 | 1012.6 |
| 20260505122254 | 39 | 63 | 2.6 | 3.5 | 0.00 | 0.00 | 0.00 | 87 | 1012.6 |
| 20260505121750 | 39 | 50 | 2.6 | 3.5 | 0.00 | 0.00 | 0.00 | 88 | 1012.5 |
| 20260505121248 | 39 | 56 | 2.6 | 2.6 | 0.00 | 0.00 | 0.00 | 87 | 1012.5 |
| 20260505120744 | 39 | 97 | 1.7 | 2.6 | 0.00 | 0.00 | 0.00 | 87 | 1012.6 |
| 20260505120240 | 39 | 92 | 1.7 | 2.6 | 0.00 | 0.00 | 0.00 | 86 | 1012.3 |
| 20260505115739 | 40 | 68 | 0.9 | 1.7 | 0.00 | 0.00 | 0.00 | 85 | 1012.3 |
| 20260505115237 | 41 | 102 | 2.6 | 3.5 | 0.00 | 0.00 | 0.00 | 84 | 1012.4 |
| 20260505114734 | 41 | 98 | 1.7 | 2.6 | 0.00 | 0.00 | 0.00 | 84 | 1012.2 |
| 20260505114229 | 40 | 84 | 3.5 | 3.5 | 0.00 | 0.00 | 0.00 | 85 | 1012.3 |
| 20260505113726 | 41 | 91 | 3.5 | 3.5 | 0.00 | 0.00 | 0.00 | 84 | 1012.3 |
| 20260505113223 | 41 | 56 | 2.6 | 3.5 | 0.00 | 0.00 | 0.00 | 84 | 1012.5 |
| 20260505112719 | 41 | 44 | 1.7 | 3.5 | 0.00 | 0.00 | 0.00 | 84 | 1012.2 |
| 20260505112217 | 41 | 21 | 3.5 | 3.5 | 0.00 | 0.00 | 0.00 | 84 | 1012.1 |
| 20260505111712 | 41 | 59 | 2.6 | 4.3 | 0.00 | 0.00 | 0.00 | 84 | 1012.3 |
| 20260505111208 | 41 | 69 | 2.6 | 3.5 | 0.00 | 0.00 | 0.00 | 84 | 1012.3 |
| 20260505110704 | 41 | 66 | 1.7 | 3.5 | 0.00 | 0.00 | 0.00 | 84 | 1012.3 |
| 20260505110202 | 41 | 42 | 3.5 | 4.3 | 0.00 | 0.00 | 0.00 | 84 | 1012.0 |
| 20260505102137 | 41 | 52 | 1.7 | 1.7 | 0.00 | 0.00 | 0.00 | 84 | 1011.7 |
| 20260505101636 | 41 | 64 | 1.7 | 1.7 | 0.00 | 0.00 | 0.00 | 84 | 1012.0 |
| 20260505101132 | 41 | 84 | 2.6 | 3.5 | 0.00 | 0.00 | 0.00 | 84 | 1011.6 |
| 20260505100628 | 41 | 89 | 2.6 | 2.6 | 0.00 | 0.00 | 0.00 | 83 | 1011.7 |
| 20260505100125 | 41 | 61 | 1.7 | 2.6 | 0.00 | 0.00 | 0.00 | 83 | 1011.7 |
| 20260505095621 | 41 | 103 | 0.0 | 0.9 | 0.00 | 0.00 | 0.00 | 83 | 1012.0 |
| 20260505095118 | 41 | 71 | 1.7 | 3.5 | 0.00 | 0.00 | 0.00 | 82 | 1012.0 |
| 20260505094614 | 42 | 85 | 1.7 | 2.6 | 0.00 | 0.00 | 0.00 | 81 | 1011.7 |
| 20260505094111 | 42 | 100 | 2.6 | 3.5 | 0.00 | 0.00 | 0.00 | 81 | 1011.9 |
| 20260505093607 | 42 | 115 | 4.3 | 4.3 | 0.00 | 0.00 | 0.00 | 79 | 1011.7 |
| 20260505093104 | 44 | 114 | 3.5 | 3.5 | 0.00 | 0.00 | 0.00 | 79 | 1011.7 |
| 20260505092601 | 44 | 8 | 3.5 | 5.2 | 0.00 | 0.00 | 0.00 | 79 | 1011.9 |
| 20260505092100 | 43 | 15 | 2.6 | 2.6 | 0.00 | 0.00 | 0.00 | 80 | 1011.9 |
| 20260505091556 | 43 | 40 | 2.6 | 3.5 | 0.00 | 0.00 | 0.00 | 81 | 1012.0 |
| 20260505091055 | 42 | 44 | 0.0 | 1.7 | 0.00 | 0.00 | 0.00 | 80 | 1011.9 |
| 20260505090552 | 43 | 89 | 1.7 | 1.7 | 0.00 | 0.00 | 0.00 | 79 | 1011.7 |
| 20260505090050 | 43 | 79 | 2.6 | 2.6 | 0.00 | 0.00 | 0.00 | 79 | 1012.0 |
| 20260505085547 | 43 | 94 | 3.5 | 3.5 | 0.00 | 0.00 | 0.00 | 79 | 1011.9 |
| 20260505085046 | 43 | 74 | 1.7 | 1.7 | 0.00 | 0.00 | 0.00 | 79 | 1011.7 |
| 20260505084543 | 44 | 88 | 0.9 | 1.7 | 0.00 | 0.00 | 0.00 | 77 | 1011.9 |
| 20260505084041 | 44 | 79 | 2.6 | 2.6 | 0.00 | 0.00 | 0.00 | 76 | 1011.7 |
| 20260505083538 | 45 | 67 | 1.7 | 1.7 | 0.00 | 0.00 | 0.00 | 75 | 1011.7 |
| 20260505083035 | 45 | 108 | 3.5 | 3.5 | 0.00 | 0.00 | 0.00 | 75 | 1011.9 |
| 20260505082530 | 45 | 87 | 1.7 | 2.6 | 0.00 | 0.00 | 0.00 | 75 | 1011.7 |
| 20260505082027 | 45 | 81 | 1.7 | 2.6 | 0.00 | 0.00 | 0.00 | 74 | 1011.6 |
| 20260505081524 | 45 | 89 | 1.7 | 1.7 | 0.00 | 0.00 | 0.00 | 74 | 1011.7 |
| 20260505081021 | 45 | 52 | 1.7 | 3.5 | 0.00 | 0.00 | 0.00 | 74 | 1011.7 |
| 20260505080517 | 45 | 58 | 2.6 | 3.5 | 0.00 | 0.00 | 0.00 | 74 | 1011.7 |
| 20260505080014 | 46 | 58 | 2.6 | 3.5 | 0.00 | 0.00 | 0.00 | 73 | 1011.6 |
| 20260505075510 | 46 | 35 | 2.6 | 2.6 | 0.00 | 0.00 | 0.00 | 72 | 1011.6 |
| 20260505075007 | 46 | 58 | 1.7 | 2.6 | 0.00 | 0.00 | 0.00 | 72 | 1011.7 |
| 20260505074504 | 46 | 24 | 3.5 | 3.5 | 0.00 | 0.00 | 0.00 | 72 | 1011.7 |
| 20260505074001 | 46 | 46 | 0.9 | 0.9 | 0.00 | 0.00 | 0.00 | 71 | 1011.7 |
| 20260505073459 | 46 | 38 | 1.7 | 1.7 | 0.00 | 0.00 | 0.00 | 72 | 1011.6 |
| 20260505072956 | 46 | 77 | 0.0 | 2.6 | 0.00 | 0.00 | 0.00 | 71 | 1011.7 |
| 20260505072452 | 46 | 65 | 1.7 | 3.5 | 0.00 | 0.00 | 0.00 | 71 | 1011.7 |
| 20260505071948 | 46 | 15 | 2.6 | 3.5 | 0.00 | 0.00 | 0.00 | 71 | 1011.7 |
| 20260505071444 | 47 | 41 | 1.7 | 3.5 | 0.00 | 0.00 | 0.00 | 70 | 1011.7 |
| 20260505070943 | 47 | 358 | 1.7 | 2.6 | 0.00 | 0.00 | 0.00 | 71 | 1011.5 |